Regional Weather Roundup
Issued by NWS

Home | Current Version | Previous Version | Graphics & Text | Print | Product List | Glossary On
Versions: 1 2 3 4 5 6 7 8 9 10 11 12 13 14 15 16 17 18 19 20 21 22 23 24 25 26 27 28 29 30 31 32 33 34 35 36 37 38 39 40 41 42 43 44 45 46 47 48 49 50
000
ASUS43 KLOT 211203
RWRIL

ILLINOIS REGIONAL WEATHER ROUNDUP
NATIONAL WEATHER SERVICE CHICAGO/ROMEOVILLE IL
600 AM CST TUE FEB 21 2017

NOTE: "FAIR" INDICATES FEW OR NO CLOUDS BELOW 12,000 FEET WITH NO
SIGNIFICANT WEATHER AND/OR OBSTRUCTIONS TO VISIBILITY.

* THESE STATIONS ARE NOT UNDER NWS QUALITY CONTROL. THEY ALSO MAY NOT
  REPORT WEATHER SUCH AS PRECIPITATION OR FOG.

ILZ001-002-007-009-015-016-024-211300-
NORTHWEST ILLINOIS

CITY           SKY/WX    TMP DP  RH WIND       PRES   REMARKS
MOLINE         MOCLDY    52  46  80 NW6       29.95R
6HR MIN TEMP:  52; 6HR MAX TEMP:  60; 6HR PCP:  0.01;

STERLING*      CLOUDY    54  54 100 NW8       29.94R FOG
SAVANNA*       CLOUDY    48  47  96 CALM      29.94R
$$

ILZ003-004-008-010-011-017-018-211300-
NORTH CENTRAL ILLINOIS

CITY           SKY/WX    TMP DP  RH WIND       PRES   REMARKS
ROCKFORD       DRIZZLE   55  53  93 W8        29.93S FOG
6HR MIN TEMP:  54; 6HR MAX TEMP:  57; 6HR PCP:  0.11;

FREEPORT*      CLOUDY    49  47  92 W7        29.94R
ROCHELLE*      CLOUDY    52  52  99 SW6       29.92R
DE KALB*       CLOUDY    54  53  98 SW7       29.91R FOG
PERU*          DRIZZLE   53  52  96 SW3       29.93R
$$

ILZ005-006-012>014-019>023-211300-
NORTHEAST ILLINOIS

CITY           SKY/WX    TMP DP  RH WIND       PRES   REMARKS
CHICAGO-OHARE  LGT RAIN  55  52  89 W5        29.90S
6HR MIN TEMP:  54; 6HR MAX TEMP:  62; 6HR PCP:  0.03;

CHICAGO-MIDWAY LGT RAIN  55  51  86 S7        29.90F
6HR MIN TEMP:  54; 6HR MAX TEMP:  60; 6HR PCP:  0.08;

AURORA         LGT RAIN  52  51  97 W3        29.92R FOG
6HR MIN TEMP:  52; 6HR MAX TEMP:  57; 6HR PCP:  0.05;

LANSING*       LGT RAIN  52  51  97 S8        29.93S
JOLIET*        LGT RAIN  55  55  99 CALM      29.91S
WAUKEGAN       CLOUDY    52  51  97 SW6       29.88R FOG
6HR MIN TEMP:  52; 6HR MAX TEMP:  59; 6HR PCP:  0.03;

DUPAGE AIRPORT LGT RAIN  53  51  93 SW5       29.91R FOG
6HR MIN TEMP:  52; 6HR MAX TEMP:  57; 6HR PCP:  0.03;

KANKAKEE*      RAIN      53  50  91 CALM      29.95F
WHEELING       LGT RAIN  54  51  90 S6        29.91R
6HR MIN TEMP:  53; 6HR MAX TEMP:  60; 6HR PCP:  0.02;

MORRIS*        LGT RAIN  53  51  95 CALM      29.91R
ROMEOVILLE*    RAIN      52  52 100 S7        29.91S
NORTHERLY ISL    N/A     54  50  86 S6          N/A
$$

LMZ740>746-211300-
SOUTHERN LAKE MICHIGAN

STATION/POSITION SKY/WX   TEMP    WIND        PRES    VSBY  WAVE
                          AIR SEA DIR/SP/G                  HT/PER
                          (F)     (DEG/KT/KT) (MB)    (MI)  (FT/S)
HARRISON CRIB              54     180/ 16/ 16   N/A
BURNHAM HARBOR             54     210/  5/ 11   N/A
CALUMET HARBOR             54     200/  5/  6 1012.6S
BURNS HARBOR               55     190/  9/ 11 1013.9F
MICHIGAN CITY              57     160/  8/  9   N/A
$$

ILZ025>027-034>036-040-047-049-050-058-095>099-211300-
WEST-CENTRAL ILLINOIS

CITY           SKY/WX    TMP DP  RH WIND       PRES   REMARKS
QUINCY         FOG       58  58 100 E3        29.92S VSB 1/4
GALESBURG*     CLOUDY    55  55 100 CALM      29.94R FOG
MACOMB*        FOG       55  55 100 S3        29.95S VSB 1/2
JACKSONVILLE*  FOG       55  54  99 E8        29.92F VSB 1/4
PITTSFIELD*    FOG       57  57 100 CALM      29.93S VSB 1/4
$$

ILZ028>032-037-038-041>044-048-051>054-059>061-211300-
CENTRAL ILLINOIS

CITY           SKY/WX    TMP DP  RH WIND       PRES   REMARKS
PONTIAC        CLOUDY    54  54  99 S9        29.95R FOG
BLOOMINGTON    LGT RAIN  54  53  97 SE6       29.95F FOG
DECATUR        CLOUDY    55  50  83 CALM      29.94S
PEORIA         LGT RAIN  56  56 100 CALM      29.93S
6HR MIN TEMP:  55; 6HR MAX TEMP:  60; 6HR PCP:  0.10;

LACON*         LGT RAIN  54  54 100 CALM      29.92R
LINCOLN*       CLOUDY    55  55 100 CALM      29.93F FOG
SPRINGFIELD    LGT RAIN  57  56  96 CALM      29.94S FOG
6HR MIN TEMP:  57; 6HR MAX TEMP:  63; 6HR PCP:  0.11;

TAYLORVILLE    RAIN      55  54  94 CALM      29.95R
6HR MIN TEMP:  55; 6HR MAX TEMP:  61;

$$

ILZ033-039-045-046-055>057-062-063-211300-
EAST-CENTRAL ILLINOIS

CITY           SKY/WX    TMP DP  RH WIND       PRES   REMARKS
CHAMPAIGN      MOCLDY    53  47  79 CALM      29.94F
RANTOUL*       CLOUDY    53  49  87 CALM      29.94F
MATTOON        MOCLDY    57  49  74 S6        29.95R
PARIS*         CLOUDY    52  48  86 S6        29.97S
$$

ILZ079-100>102-211300-
SOUTHWEST ILLINOIS

CITY           SKY/WX    TMP DP  RH WIND       PRES   REMARKS
ALTON          RAIN      57  56  99 CALM      29.94R
BELLEVILLE     LGT RAIN  55  55 100 W3        29.92S
CAHOKIA*       LGT RAIN  58  56  93 CALM      29.93S FOG
SPARTA*        DRIZZLE   55  53  95 CALM      29.93S
$$

ILZ064>066-069>071-074>076-080>082-084>086-088>090-092>094-211300-
SOUTH-CENTRAL ILLINOIS

CITY           SKY/WX    TMP DP  RH WIND       PRES   REMARKS
CARBONDALE     CLOUDY    54  52  93 CALM      29.93S
6HR MIN TEMP:  54; 6HR MAX TEMP:  64; 6HR PCP: TRACE;

CAIRO*         CLOUDY    55  51  85 NE5       29.93S
EFFINGHAM*     CLOUDY    55  50  84 CALM      29.97S
MARION         CLOUDY    57  48  72 CALM      29.95S
MT. VERNON     LGT RAIN  55  50  83 N3        29.94S
CENTRALIA*     MOCLDY    55  51  87 CALM      29.94S
SALEM*         CLOUDY    56  50  80 CALM      29.95S
METROPOLIS*    CLOUDY    54  49  84 CALM      29.95R
$$

ILZ067-068-072-073-078-083-087-091-211300-
SOUTHEAST ILLINOIS

CITY           SKY/WX    TMP DP  RH WIND       PRES   REMARKS
LAWRENCEVILLE  MOCLDY    53  45  74 S6        29.97R
FLORA*         MOCLDY    55  50  85 E6        29.96S
FAIRFIELD*     MOCLDY    55  49  78 CALM      29.95S
HARRISBURG*    CLOUDY    54  50  86 CALM      29.96R
ROBINSON*      CLOUDY    49  46  90 NW3       29.98R
CARMI*         CLOUDY    52  49  89 CALM      29.95R
$$

ABBREVIATIONS USED IN REMARKS
   TC - TEMPERATURE IN CELSIUS
  WCI - WIND CHILL INDEX
   HX - HEAT INDEX
  VSB - VISIBILITY
$$




USA.gov is the U.S. government's official web portal to all federal, state and local government web resources and services.